Flag for Czech Republic Weather past 2 weeks in Ostrava, Czech Republic

Now
68 °F

Overcast.


Feels Like: 68 °F
Forecast: 47 / 63 °F
Wind: 5 mph from Southwest

Location: Ostrava / Mosnov

Current Time: Aug 23, 2014 at 4:18:40 PM

Latest Report: Aug 23, 2014 at 3:00 PM


Visibility: 19 mi

Pressure: 29.94 "Hg

Humidity: 65%

Dew point: 55 °F

Location of OstravaLocation

Historic Weather in Ostrava — Graph

°F

Ostrava temperature yesterday

Maximum temperature yesterday: 68 °F (at 4:00 PM)
Minimum temperature yesterday: 46 °F (at 6:00 AM)
Average temperature yesterday: 58 °F

Past Weeks' High & Low Weather Summary

 TemperatureHumidityPressure
High83 °F (Aug 9, 3:00 PM)98% (Aug 10, 6:00 AM)30.09 "Hg (Aug 10, 6:00 AM)
Low46 °F (Aug 22, 6:00 AM)41% (Aug 8, 5:00 PM)29.62 "Hg (Aug 13, 11:00 PM)
Average63 °F80%29.94 "Hg
* Reported Aug 8 3:00 PM — Aug 23 3:00 PM, Ostrava, Weather by CustomWeather, © 2014

Note: Actual official high and low records may vary slightly from our data, if they occured in-between our weather recording intervals... More about our weather records

Advertising

Ostrava weather history for previous 24 hours

 ConditionsComfort  
Time TempWeatherWind HumidityBarometerVisibility
3:00 PM
Aug 23
68 °FOvercast.5 mph65%29.94 "Hg19 mi
2:00 PM68 °FOvercast.6 mph61%29.95 "Hg25 mi
1:00 PM69 °FPartly sunny.5 mph60%29.96 "Hg25 mi
12:00 PM69 °FPartly sunny.6 mph60%29.97 "Hg25 mi
11:00 AM68 °FScattered clouds.6 mph69%29.97 "Hg25 mi
10:00 AM65 °FScattered clouds.5 mph76%29.98 "Hg22 mi
9:00 AM63 °FScattered clouds.3 mph83%29.98 "Hg19 mi
8:00 AM59 °FScattered clouds.N/A87%29.98 "Hg16 mi
7:00 AM54 °FScattered clouds.No wind95%29.99 "Hg16 mi
6:00 AM55 °FPartly sunny.N/A92%29.99 "Hg16 mi
5:00 AM57 °FOvercast.N/A87%29.98 "Hg16 mi
4:00 AM58 °FOvercast.3 mph89%29.99 "Hg12 mi
3:00 AM53 °FPassing clouds.3 mph97%29.99 "Hg19 mi
2:00 AM51 °FPassing clouds.2 mph97%29.99 "Hg19 mi
1:00 AM52 °FPassing clouds.2 mph94%29.99 "Hg19 mi
12:00 AM55 °FPassing clouds.1 mph88%30.00 "Hg19 mi
11:00 PM
Aug 22
56 °FPassing clouds.N/A88%30.01 "Hg19 mi
10:00 PM58 °FClear.2 mph78%30.01 "Hg19 mi
9:00 PM60 °FPassing clouds.2 mph75%30.00 "Hg19 mi
8:00 PM58 °FPassing clouds.3 mph78%30.00 "Hg19 mi
7:00 PM65 °FPartly sunny.6 mph60%29.98 "Hg19 mi
6:00 PM67 °FScattered clouds.7 mph55%29.99 "Hg19 mi
5:00 PM67 °FScattered clouds.6 mph54%29.99 "Hg19 mi
4:00 PM68 °FPartly sunny.7 mph54%30.01 "Hg16 mi
Weather by CustomWeather, © 2014

See weather overviewHow to use our weather pages